Time,TemperatureF,DewpointF,PressureIn,WindDirection,WindDirectionDegrees,WindSpeedMPH,WindSpeedGustMPH,Humidity,HourlyPrecipIn,Conditions,Clouds,dailyrainin,SoftwareType,DateUTC
2013-04-25 00:02:00,41.0,35.0,-100.00,SSW,200,4.0,4.0,81,-99.99,,,-99.99,,2013-04-25 05:02:00,
2013-04-25 00:12:00,41.0,35.0,-100.00,SSW,200,3.0,4.0,81,-99.99,,,-99.99,,2013-04-25 05:12:00,
2013-04-25 00:21:00,41.0,35.0,-100.00,SSW,200,3.0,4.0,81,-99.99,,,-99.99,,2013-04-25 05:21:00,
2013-04-25 00:42:00,40.0,35.0,-100.00,SSW,200,3.0,4.0,81,-99.99,,,-99.99,,2013-04-25 05:42:00,
2013-04-25 00:52:00,40.0,35.0,-100.00,SSW,205,3.0,3.0,80,-99.99,,,-99.99,,2013-04-25 05:52:00,
2013-04-25 01:02:00,40.0,35.0,-100.00,SSW,205,3.0,3.0,80,-99.99,,,-99.99,,2013-04-25 06:02:00,
2013-04-25 01:11:00,39.0,35.0,-100.00,SSW,205,3.0,3.0,83,-99.99,,,-99.99,,2013-04-25 06:11:00,
2013-04-25 01:22:00,39.0,34.0,-100.00,South,185,3.0,3.0,84,-99.99,,,-99.99,,2013-04-25 06:22:00,
2013-04-25 01:32:00,39.0,34.0,-100.00,South,185,3.0,3.0,84,-99.99,,,-99.99,,2013-04-25 06:32:00,
2013-04-25 01:42:00,39.0,34.0,-100.00,South,185,3.0,3.0,84,-99.99,,,-99.99,,2013-04-25 06:42:00,
2013-04-25 01:52:00,39.0,36.0,-100.00,SSW,195,4.0,6.0,87,-99.99,,,-99.99,,2013-04-25 06:52:00,
2013-04-25 02:02:00,39.0,36.0,-100.00,SSW,195,4.0,6.0,87,-99.99,,,-99.99,,2013-04-25 07:02:00,
2013-04-25 02:12:00,40.0,36.0,-100.00,SW,215,3.0,4.0,85,-99.99,,,-99.99,,2013-04-25 07:12:00,
2013-04-25 02:22:00,39.0,35.0,-100.00,SW,225,3.0,4.0,85,-99.99,,,-99.99,,2013-04-25 07:22:00,
2013-04-25 02:32:00,39.0,35.0,-100.00,SW,225,3.0,4.0,85,-99.99,,,-99.99,,2013-04-25 07:32:00,
2013-04-25 02:42:00,39.0,35.0,-100.00,SW,215,3.0,3.0,86,-99.99,,,-99.99,,2013-04-25 07:42:00,
2013-04-25 02:52:00,39.0,36.0,-100.00,SW,230,3.0,4.0,87,-99.99,,,-99.99,,2013-04-25 07:52:00,
2013-04-25 03:02:00,39.0,36.0,-100.00,SW,230,3.0,4.0,87,-99.99,,,-99.99,,2013-04-25 08:02:00,
2013-04-25 03:11:00,40.0,36.0,-100.00,SW,215,4.0,6.0,86,-99.99,,,-99.99,,2013-04-25 08:11:00,
2013-04-25 03:21:00,40.0,36.0,-100.00,SW,220,6.0,6.0,85,-99.99,,,-99.99,,2013-04-25 08:21:00,
2013-04-25 03:31:00,40.0,36.0,-100.00,SW,220,6.0,6.0,85,-99.99,,,-99.99,,2013-04-25 08:31:00,
2013-04-25 03:42:00,40.0,36.0,-100.00,SW,220,4.0,6.0,83,-99.99,,,-99.99,,2013-04-25 08:42:00,
2013-04-25 03:52:00,40.0,35.0,-100.00,SSW,205,3.0,4.0,83,-99.99,,,-99.99,,2013-04-25 08:52:00,
2013-04-25 04:01:00,40.0,35.0,-100.00,SSW,205,3.0,4.0,83,-99.99,,,-99.99,,2013-04-25 09:01:00,
2013-04-25 04:11:00,40.0,35.0,-100.00,SSW,210,3.0,4.0,83,-99.99,,,-99.99,,2013-04-25 09:11:00,
2013-04-25 04:21:00,39.0,35.0,-100.00,SSW,205,3.0,3.0,83,-99.99,,,-99.99,,2013-04-25 09:21:00,
2013-04-25 04:33:00,39.0,35.0,-100.00,SSW,205,3.0,3.0,83,-99.99,,,-99.99,,2013-04-25 09:33:00,
2013-04-25 04:42:00,39.0,35.0,-100.00,SSW,195,3.0,4.0,84,-99.99,,,-99.99,,2013-04-25 09:42:00,
2013-04-25 04:52:00,39.0,35.0,-100.00,SSW,205,3.0,4.0,85,-99.99,,,-99.99,,2013-04-25 09:52:00,
2013-04-25 05:02:00,39.0,35.0,-100.00,SSW,205,3.0,4.0,85,-99.99,,,-99.99,,2013-04-25 10:02:00,
2013-04-25 05:12:00,39.0,35.0,-100.00,SSW,195,3.0,4.0,85,-99.99,,,-99.99,,2013-04-25 10:12:00,
2013-04-25 05:22:00,39.0,35.0,-100.00,SSW,200,4.0,6.0,85,-99.99,,,-99.99,,2013-04-25 10:22:00,
2013-04-25 05:32:00,39.0,35.0,-100.00,SSW,200,4.0,6.0,85,-99.99,,,-99.99,,2013-04-25 10:32:00,
2013-04-25 05:42:00,39.0,35.0,-100.00,SW,215,3.0,4.0,85,-99.99,,,-99.99,,2013-04-25 10:42:00,
2013-04-25 05:53:00,39.0,35.0,-100.00,SSW,205,4.0,6.0,85,-99.99,,,-99.99,,2013-04-25 10:53:00,
2013-04-25 06:02:00,39.0,35.0,-100.00,SSW,205,4.0,6.0,85,-99.99,,,-99.99,,2013-04-25 11:02:00,
2013-04-25 06:12:00,39.0,35.0,-100.00,SSW,210,3.0,4.0,85,-99.99,,,-99.99,,2013-04-25 11:12:00,
2013-04-25 06:22:00,39.0,35.0,-100.00,SW,215,3.0,4.0,85,-99.99,,,-99.99,,2013-04-25 11:22:00,
2013-04-25 06:32:00,39.0,35.0,-100.00,SW,215,3.0,4.0,85,-99.99,,,-99.99,,2013-04-25 11:32:00,
2013-04-25 06:42:00,39.0,35.0,-100.00,SW,225,6.0,9.0,84,-99.99,,,-99.99,,2013-04-25 11:42:00,
2013-04-25 06:52:00,39.0,34.0,-100.00,SW,225,4.0,4.0,81,-99.99,,,-99.99,,2013-04-25 11:52:00,
2013-04-25 07:01:00,39.0,34.0,-100.00,SW,225,4.0,4.0,81,-99.99,,,-99.99,,2013-04-25 12:01:00,
2013-04-25 07:12:00,40.0,34.0,-100.00,SW,215,4.0,6.0,78,-99.99,,,-99.99,,2013-04-25 12:12:00,
2013-04-25 07:21:00,41.0,33.0,-100.00,SW,230,3.0,6.0,75,-99.99,,,-99.99,,2013-04-25 12:21:00,
2013-04-25 07:32:00,41.0,33.0,-100.00,SW,230,3.0,6.0,75,-99.99,,,-99.99,,2013-04-25 12:32:00,
2013-04-25 07:42:00,41.0,33.0,-100.00,SW,230,3.0,6.0,75,-99.99,,,-99.99,,2013-04-25 12:42:00,
2013-04-25 07:52:00,42.0,33.0,-100.00,WSW,240,3.0,6.0,70,-99.99,,,-99.99,,2013-04-25 12:52:00,
2013-04-25 08:02:00,42.0,33.0,-100.00,WSW,240,3.0,6.0,70,-99.99,,,-99.99,,2013-04-25 13:02:00,
2013-04-25 08:11:00,43.0,33.0,-100.00,SW,225,4.0,6.0,68,-99.99,,,-99.99,,2013-04-25 13:11:00,
2013-04-25 08:21:00,44.0,33.0,-100.00,West,260,6.0,12.0,65,-99.99,,,-99.99,,2013-04-25 13:21:00,
2013-04-25 08:32:00,44.0,33.0,-100.00,West,260,6.0,12.0,65,-99.99,,,-99.99,,2013-04-25 13:32:00,
2013-04-25 08:42:00,45.0,33.0,-100.00,WSW,240,6.0,9.0,61,-99.99,,,-99.99,,2013-04-25 13:42:00,
2013-04-25 08:53:00,46.0,33.0,-100.00,West,265,8.0,10.0,59,-99.99,,,-99.99,,2013-04-25 13:53:00,
2013-04-25 09:02:00,46.0,33.0,-100.00,West,265,8.0,10.0,59,-99.99,,,-99.99,,2013-04-25 14:02:00,
2013-04-25 09:11:00,48.0,33.0,-100.00,West,275,6.0,11.0,57,-99.99,,,-99.99,,2013-04-25 14:11:00,
2013-04-25 09:21:00,49.0,33.0,-100.00,WSW,250,10.0,14.0,54,-99.99,,,-99.99,,2013-04-25 14:21:00,
2013-04-25 09:32:00,49.0,33.0,-100.00,WSW,250,10.0,14.0,54,-99.99,,,-99.99,,2013-04-25 14:32:00,
2013-04-25 09:42:00,49.0,32.0,-100.00,WNW,290,10.0,17.0,52,-99.99,,,-99.99,,2013-04-25 14:42:00,
2013-04-25 09:52:00,50.0,32.0,-100.00,NW,305,3.0,6.0,50,-99.99,,,-99.99,,2013-04-25 14:52:00,
2013-04-25 10:02:00,50.0,32.0,-100.00,NW,305,3.0,6.0,50,-99.99,,,-99.99,,2013-04-25 15:02:00,
2013-04-25 10:11:00,50.0,31.0,-100.00,WNW,285,9.0,12.0,48,-99.99,,,-99.99,,2013-04-25 15:11:00,
2013-04-25 10:21:00,51.0,30.0,-100.00,NW,315,10.0,14.0,45,-99.99,,,-99.99,,2013-04-25 15:21:00,
2013-04-25 10:33:00,51.0,30.0,-100.00,NW,315,10.0,14.0,45,-99.99,,,-99.99,,2013-04-25 15:33:00,
2013-04-25 10:42:00,51.0,30.0,-100.00,NW,315,10.0,14.0,45,-99.99,,,-99.99,,2013-04-25 15:42:00,
2013-04-25 10:53:00,54.0,31.0,-100.00,NW,305,6.0,11.0,41,-99.99,,,-99.99,,2013-04-25 15:53:00,
2013-04-25 11:02:00,54.0,31.0,-100.00,NW,305,6.0,11.0,41,-99.99,,,-99.99,,2013-04-25 16:02:00,
2013-04-25 11:13:00,54.0,30.0,-100.00,NNW,335,10.0,14.0,40,-99.99,,,-99.99,,2013-04-25 16:13:00,
2013-04-25 11:24:00,55.0,30.0,-100.00,WNW,300,6.0,10.0,39,-99.99,,,-99.99,,2013-04-25 16:24:00,
2013-04-25 11:32:00,55.0,30.0,-100.00,WNW,300,6.0,10.0,39,-99.99,,,-99.99,,2013-04-25 16:32:00,
2013-04-25 11:43:00,54.0,29.0,-100.00,NW,305,2.0,6.0,37,-99.99,,,-99.99,,2013-04-25 16:43:00,
2013-04-25 11:52:00,54.0,28.0,-100.00,NNW,335,12.0,18.0,37,-99.99,,,-99.99,,2013-04-25 16:52:00,
2013-04-25 12:02:00,54.0,28.0,-100.00,NNW,335,12.0,18.0,37,-99.99,,,-99.99,,2013-04-25 17:02:00,
2013-04-25 12:11:00,55.0,28.0,-100.00,North,0,6.0,10.0,36,-99.99,,,-99.99,,2013-04-25 17:11:00,
2013-04-25 12:22:00,56.0,28.0,-100.00,WNW,300,0.0,2.0,34,-99.99,,,-99.99,,2013-04-25 17:22:00,
2013-04-25 12:32:00,56.0,28.0,-100.00,WNW,300,0.0,2.0,34,-99.99,,,-99.99,,2013-04-25 17:32:00,
2013-04-25 12:42:00,56.0,27.0,-100.00,WNW,300,6.0,11.0,33,-99.99,,,-99.99,,2013-04-25 17:42:00,
2013-04-25 12:53:00,56.0,27.0,-100.00,NW,315,4.0,9.0,32,-99.99,,,-99.99,,2013-04-25 17:53:00,
2013-04-25 13:01:00,56.0,27.0,-100.00,NW,315,4.0,9.0,32,-99.99,,,-99.99,,2013-04-25 18:01:00,
2013-04-25 13:11:00,57.0,27.0,-100.00,West,280,6.0,9.0,32,-99.99,,,-99.99,,2013-04-25 18:11:00,
2013-04-25 13:22:00,56.0,26.0,-100.00,NW,320,8.0,14.0,31,-99.99,,,-99.99,,2013-04-25 18:22:00,
2013-04-25 13:32:00,56.0,26.0,-100.00,NW,320,8.0,14.0,31,-99.99,,,-99.99,,2013-04-25 18:32:00,
2013-04-25 13:42:00,57.0,26.0,-100.00,West,280,10.0,14.0,30,-99.99,,,-99.99,,2013-04-25 18:42:00,
2013-04-25 13:53:00,58.0,27.0,-100.00,WSW,250,6.0,9.0,30,-99.99,,,-99.99,,2013-04-25 18:53:00,
2013-04-25 14:01:00,58.0,27.0,-100.00,WSW,250,6.0,9.0,30,-99.99,,,-99.99,,2013-04-25 19:01:00,
2013-04-25 14:12:00,58.0,27.0,-100.00,WSW,250,6.0,9.0,30,-99.99,,,-99.99,,2013-04-25 19:12:00,
2013-04-25 14:21:00,58.0,27.0,-100.00,West,270,16.0,18.0,30,-99.99,,,-99.99,,2013-04-25 19:21:00,
2013-04-25 14:31:00,58.0,27.0,-100.00,West,270,16.0,18.0,30,-99.99,,,-99.99,,2013-04-25 19:31:00,
2013-04-25 14:42:00,59.0,27.0,-100.00,West,265,9.0,12.0,30,-99.99,,,-99.99,,2013-04-25 19:42:00,
2013-04-25 14:52:00,59.0,27.0,-100.00,WSW,240,6.0,9.0,30,-99.99,,,-99.99,,2013-04-25 19:52:00,
2013-04-25 15:02:00,59.0,27.0,-100.00,WSW,240,6.0,9.0,30,-99.99,,,-99.99,,2013-04-25 20:02:00,
2013-04-25 15:11:00,59.0,26.0,-100.00,West,270,9.0,14.0,29,-99.99,,,-99.99,,2013-04-25 20:11:00,
2013-04-25 15:22:00,59.0,27.0,-100.00,WNW,290,12.0,17.0,29,-99.99,,,-99.99,,2013-04-25 20:22:00,
2013-04-25 15:32:00,59.0,27.0,-100.00,WNW,290,12.0,17.0,29,-99.99,,,-99.99,,2013-04-25 20:32:00,
2013-04-25 15:42:00,60.0,28.0,-100.00,NW,310,3.0,4.0,29,-99.99,,,-99.99,,2013-04-25 20:42:00,
2013-04-25 15:52:00,60.0,28.0,-100.00,NW,325,11.0,14.0,29,-99.99,,,-99.99,,2013-04-25 20:52:00,
2013-04-25 16:01:00,60.0,28.0,-100.00,NW,325,11.0,14.0,29,-99.99,,,-99.99,,2013-04-25 21:01:00,
2013-04-25 16:11:00,60.0,27.0,-100.00,SW,225,6.0,6.0,29,-99.99,,,-99.99,,2013-04-25 21:11:00,
2013-04-25 16:22:00,61.0,28.0,-100.00,WSW,245,6.0,9.0,29,-99.99,,,-99.99,,2013-04-25 21:22:00,
2013-04-25 16:33:00,61.0,28.0,-100.00,WSW,245,6.0,9.0,29,-99.99,,,-99.99,,2013-04-25 21:33:00,
2013-04-25 16:42:00,61.0,27.0,-100.00,NW,305,9.0,11.0,28,-99.99,,,-99.99,,2013-04-25 21:42:00,
2013-04-25 16:53:00,61.0,28.0,-100.00,West,280,4.0,6.0,29,-99.99,,,-99.99,,2013-04-25 21:53:00,
2013-04-25 17:02:00,61.0,28.0,-100.00,West,280,4.0,6.0,29,-99.99,,,-99.99,,2013-04-25 22:02:00,
2013-04-25 17:12:00,61.0,29.0,-100.00,WSW,255,3.0,4.0,29,-99.99,,,-99.99,,2013-04-25 22:12:00,
2013-04-25 17:22:00,60.0,27.0,-100.00,West,275,10.0,14.0,28,-99.99,,,-99.99,,2013-04-25 22:22:00,
2013-04-25 17:33:00,60.0,27.0,-100.00,West,275,10.0,14.0,28,-99.99,,,-99.99,,2013-04-25 22:33:00,
2013-04-25 17:42:00,60.0,27.0,-100.00,West,270,8.0,10.0,28,-99.99,,,-99.99,,2013-04-25 22:42:00,
2013-04-25 17:53:00,61.0,28.0,-100.00,WNW,290,10.0,14.0,28,-99.99,,,-99.99,,2013-04-25 22:53:00,
2013-04-25 18:02:00,61.0,28.0,-100.00,WNW,290,10.0,14.0,28,-99.99,,,-99.99,,2013-04-25 23:02:00,
2013-04-25 18:12:00,61.0,27.0,-100.00,North,10,1.0,3.0,28,-99.99,,,-99.99,,2013-04-25 23:12:00,
2013-04-25 18:22:00,60.0,28.0,-100.00,SW,225,4.0,6.0,29,-99.99,,,-99.99,,2013-04-25 23:22:00,
2013-04-25 18:32:00,60.0,28.0,-100.00,SW,225,4.0,6.0,29,-99.99,,,-99.99,,2013-04-25 23:32:00,
2013-04-25 18:42:00,61.0,28.0,-100.00,WSW,240,3.0,6.0,29,-99.99,,,-99.99,,2013-04-25 23:42:00,
2013-04-25 18:52:00,59.0,28.0,-100.00,South,185,2.0,3.0,30,-99.99,,,-99.99,,2013-04-25 23:52:00,
2013-04-25 19:01:00,59.0,28.0,-100.00,South,185,2.0,3.0,30,-99.99,,,-99.99,,2013-04-26 00:01:00,
2013-04-25 19:11:00,60.0,28.0,-100.00,SW,235,1.0,2.0,30,-99.99,,,-99.99,,2013-04-26 00:11:00,
2013-04-25 19:21:00,60.0,28.0,-100.00,SW,215,1.0,3.0,30,-99.99,,,-99.99,,2013-04-26 00:21:00,
2013-04-25 19:32:00,60.0,28.0,-100.00,SW,215,1.0,3.0,30,-99.99,,,-99.99,,2013-04-26 00:32:00,
2013-04-25 19:41:00,59.0,27.0,-100.00,SW,230,1.0,3.0,30,-99.99,,,-99.99,,2013-04-26 00:41:00,
2013-04-25 19:52:00,59.0,28.0,-100.00,NW,305,1.0,1.0,31,-99.99,,,-99.99,,2013-04-26 00:52:00,
2013-04-25 20:01:00,59.0,28.0,-100.00,NW,305,1.0,1.0,31,-99.99,,,-99.99,,2013-04-26 01:01:00,
2013-04-25 20:11:00,57.0,28.0,-100.00,WNW,290,0.0,3.0,32,-99.99,,,-99.99,,2013-04-26 01:11:00,
2013-04-25 20:21:00,55.0,29.0,-100.00,SE,125,1.0,1.0,37,-99.99,,,-99.99,,2013-04-26 01:21:00,
2013-04-25 20:31:00,55.0,29.0,-100.00,SE,125,1.0,1.0,37,-99.99,,,-99.99,,2013-04-26 01:31:00,
2013-04-25 20:42:00,54.0,30.0,-100.00,ESE,120,0.0,0.0,40,-99.99,,,-99.99,,2013-04-26 01:42:00,
2013-04-25 20:52:00,53.0,31.0,-100.00,SSW,205,0.0,0.0,42,-99.99,,,-99.99,,2013-04-26 01:52:00,
2013-04-25 21:02:00,53.0,31.0,-100.00,SSW,205,0.0,0.0,42,-99.99,,,-99.99,,2013-04-26 02:02:00,
2013-04-25 21:11:00,51.0,33.0,-100.00,SSE,165,0.0,0.0,50,-99.99,,,-99.99,,2013-04-26 02:11:00,
2013-04-25 21:21:00,50.0,35.0,-100.00,South,185,0.0,0.0,57,-99.99,,,-99.99,,2013-04-26 02:21:00,
2013-04-25 21:32:00,50.0,35.0,-100.00,South,185,0.0,0.0,57,-99.99,,,-99.99,,2013-04-26 02:32:00,
2013-04-25 21:42:00,50.0,35.0,-100.00,ESE,120,1.0,2.0,57,-99.99,,,-99.99,,2013-04-26 02:42:00,
2013-04-25 21:52:00,49.0,36.0,-100.00,SE,135,0.0,0.0,61,-99.99,,,-99.99,,2013-04-26 02:52:00,
2013-04-25 22:01:00,49.0,36.0,-100.00,SE,135,0.0,0.0,61,-99.99,,,-99.99,,2013-04-26 03:01:00,
2013-04-25 22:11:00,48.0,37.0,-100.00,ESE,115,1.0,2.0,66,-99.99,,,-99.99,,2013-04-26 03:11:00,
2013-04-25 22:21:00,48.0,38.0,-100.00,SE,145,0.0,0.0,66,-99.99,,,-99.99,,2013-04-26 03:21:00,
2013-04-25 22:33:00,48.0,38.0,-100.00,SE,145,0.0,0.0,66,-99.99,,,-99.99,,2013-04-26 03:33:00,
2013-04-25 22:43:00,48.0,38.0,-100.00,SE,130,1.0,2.0,69,-99.99,,,-99.99,,2013-04-26 03:43:00,
2013-04-25 22:53:00,47.0,37.0,-100.00,East,100,1.0,2.0,68,-99.99,,,-99.99,,2013-04-26 03:53:00,
2013-04-25 23:02:00,47.0,37.0,-100.00,East,100,1.0,2.0,68,-99.99,,,-99.99,,2013-04-26 04:02:00,
2013-04-25 23:12:00,47.0,37.0,-100.00,ESE,110,1.0,1.0,69,-99.99,,,-99.99,,2013-04-26 04:12:00,
2013-04-25 23:23:00,47.0,38.0,-100.00,SE,125,1.0,1.0,70,-99.99,,,-99.99,,2013-04-26 04:23:00,
2013-04-25 23:30:00,47.0,38.0,-100.00,SE,140,2.0,4.0,71,-99.99,,,-99.99,,2013-04-26 04:30:00,
2013-04-25 23:32:00,47.0,38.0,-100.00,SE,125,1.0,1.0,70,-99.99,,,-99.99,,2013-04-26 04:32:00,
2013-04-25 23:43:00,46.0,38.0,-100.00,ESE,110,0.0,1.0,73,-99.99,,,-99.99,,2013-04-26 04:43:00,
2013-04-25 23:53:00,45.0,38.0,-100.00,ESE,110,2.0,2.0,76,-99.99,,,-99.99,,2013-04-26 04:53:00,